Regional Weather Roundup
Issued by NWS

Home | Current Version | Previous Version | Text Only | Print | Product List | Glossary On
Versions: 1 2 3 4 5 6 7 8 9 10 11 12 13 14 15 16 17 18 19 20 21 22 23 24 25 26 27 28 29 30 31 32 33 34 35 36 37 38 39 40 41 42 43 44 45 46 47 48 49 50
000
ASCA44 KEWX 042220
RWRMX

LATIN AMERICA AND CARIBBEAN REGIONAL WEATHER ROUNDUP
NATIONAL WEATHER SERVICE AUSTIN/SAN ANTONIO TX
400 PM CST SUN DEC 04 2016

NOTE: "FAIR" INDICATED FEW OR NO CLOUDS BELOW 12,000 FEET WITH NO
SIGNIFICANT WEATHER AND/OR OBSTRUCTIONS TO VISIBILITY.

BAJA CALIFORNIA

CITY           SKY/WX    TMP DP  RH WIND       PRES   REMARKS
LORETO         SUNNY     73  46  38 NW18      29.89
LA PAZ         MOSUNNY   72  46  40 NW7       29.93S
MEXICALI       SUNNY     73  12   9 NW6       30.00F
S.J. DEL CABO  MOSUNNY   72  41  33 SE8       29.92F
TIJUANA        SUNNY     73  16  11 NW12      30.02F

NORTHWESTERN MEXICO

CITY           SKY/WX    TMP DP  RH WIND       PRES   REMARKS
CULIACAN       MOSUNNY   72  39  30 W6        29.89S
DURANGO        CLOUDY    50  36  57 SW16      29.94S WCI  44
GUAYMAS        SUNNY     75  48  38 CALM      29.83F
HERMOSILLO     SUNNY     77  41  27 CALM      29.91F
CD. JUAREZ     SUNNY     55  34  44 N7        29.97F
LOS MOCHIS     MOSUNNY   72  41  33 NW6       29.90S
OBREGON        SUNNY     73  41  31 SW6       29.86S

NORTHEASTERN MEXICO

CITY           SKY/WX    TMP DP  RH WIND       PRES   REMARKS
CHIHUAHUA      CLOUDY    43  43 100 N16       30.00F WCI  35
MATAMOROS      DRZL/FOG  57  57 100 NW14      29.84S VSB 1
MONCLOVA       DRIZZLE   50  50 100 NE7       29.97  FOG     WCI  47
MONTERREY      DRIZZLE   54  50  87 W7        29.88S FOG
NUEVO LAREDO   LGT RAIN  54  52  94 N10       29.92R FOG
PIEDRAS NEGRAS   N/A    N/A N/A N/A MISG        N/A
REYNOSA        DRZL/FOG  55  52  88 N12       29.87R VSB 1
SALTILLO       FOG       48  48 100 CALM      29.95R VSB 1/4
TORREON        PTSUNNY   59  52  77 NW13      29.87R
CD. VICTORIA   CLOUDY    63  54  72 N15       29.83F

WESTERN MEXICO

CITY           SKY/WX    TMP DP  RH WIND       PRES   REMARKS
AGUASCALIENTES PTSUNNY   64  45  48 SW12G23   30.02R
COLIMA         PTSUNNY   75  66  73 SW12      29.96
DEL BAJIO      PTSUNNY   57  55  94 S26G38    30.12R
GUADALAJARA    PTSUNNY   72  45  37 S15       29.99S
MANZANILLO     MOSUNNY   82  75  78 W12       29.79S
MAZATLAN       SUNNY     73  43  33 W10       29.88S
P. VALLARTA    CLOUDY    72  64  78 CALM      29.87F
URUAPAN        CLOUDY    63  61  94 CALM      30.06F
ZACATECAS      MOSUNNY   64  36  34 SW43      29.97R

CENTRAL MEXICO

CITY           SKY/WX    TMP DP  RH WIND       PRES   REMARKS
CUERNAVACA     MOSUNNY   81  55  41 SW6       29.98
MEXICO CITY    PTSUNNY   72  41  33 SW9       30.15R
MORELIA        MOSUNNY   70  50  49 S12       30.09S
POZA RICA      PTSUNNY   86  72  62 CALM      29.76S HX  92
PUEBLA         MOSUNNY   70  43  37 S25       30.15F
QUERETARO      PTSUNNY   70  46  43 SW12      30.12F
S. LUIS POTOSI PTSUNNY   73  37  27 S16G28    29.97S
TAMPICO        PTSUNNY   75  70  83 N23G35    29.74S HAZE
TOLUCA         PTSUNNY   63  39  42 W18       30.25R

SOUTHERN MEXICO

CITY           SKY/WX    TMP DP  RH WIND       PRES   REMARKS
ACAPULCO       MOSUNNY   86  73  66 SW8       29.80F HX  93
B. DE HUATULCO   N/A     84  77  79 MISG      29.83F HX  94
OAXACA         MOSUNNY   82  48  30 S13       29.99F
P. ESCONDIDO   MOSUNNY   84  73  70 SW12      29.89S HX  91
VERACRUZ       MOSUNNY   86  75  70 E5        29.69R HX  95
ZIHUATANEJO    PTSUNNY   82  73  74 NW6       29.83F

YUCATAN PENINSULA

CITY           SKY/WX    TMP DP  RH WIND       PRES   REMARKS
CAMPECHE       MOSUNNY   91  75  59 SE12      29.72S HX 102
CANCUN         PTSUNNY   82  77  83 SE12      29.85S HX  91
CHETUMAL         N/A    N/A N/A N/A MISG        N/A
CD. DEL CARMEN SUNNY     90  72  55 E8        29.73S HX  96
COZUMEL        MOSUNNY   82  75  78 E12       29.84R
MERIDA         PTSUNNY   88  73  62 E16       29.78R HX  96
MINATITLAN     SUNNY     91  68  46 S12       29.64S HX  95
TAPACHULA      MOSUNNY   88  73  62 W14       29.89R HX  96
TUX. GUTIERREZ MOSUNNY   88  59  37 S7        29.81F
VILLAHERMOSA   SUNNY     88  73  62 NE8       29.74F HX  96

CENTRAL AMERICA

CITY           SKY/WX    TMP DP  RH WIND       PRES   REMARKS
BELIZE CITY    MOSUNNY   84  77  79 SE7       29.82R HX  94
MANAGUA        PTCLDY    84  72  65 SE9       29.77S

CARIBBEAN

CITY           SKY/WX    TMP DP  RH WIND       PRES   REMARKS
ARUBA          PTCLDY    84  75  74 E16       29.83S HX  92
CURACAO        PTCLDY    84  77  79 E12       29.86S HX  94
KINGSTON       PTCLDY    86  73  66 SE17      29.89S HX  93
NASSAU         PTCLDY    77  70  78 E14       30.04R
SAN JUAN       PTCLDY    82  73  74 E10       29.94R
SANTO DOMINGO  MOCLDY    79  75  89 E5        29.92S
ST. CROIX      PTCLDY    79  72  78 NE5       29.94S
ST. KITTS      PTCLDY    79  72  78 NE6       29.94S
ST. THOMAS     CLEAR     82  73  74 E5        29.94R

$$




USA.gov is the U.S. government's official web portal to all federal, state and local government web resources and services.